This is the latest recevied weather packets stored in our database for station/object KO4YAW. If no packets are shown the sender has not sent any weather packets the latest 10 day(s).
| Time | Temp. | Humidity | Pressure | Rain* | Wind** | Luminosity | Snow |
|---|---|---|---|---|---|---|---|
| 1787982484 | 21.67° C | 50% | 1021.1 hPa | 0 mm | - | 0 W/m² | - |
| 1787981584 | 21.67° C | 50% | 1021 hPa | 0 mm | - | 0 W/m² | - |
| 1787980684 | 21.67° C | 49% | 1021.2 hPa | 0 mm | - | 0 W/m² | - |
| 1787979784 | 22.22° C | 50% | 1021.4 hPa | 0 mm | - | 0 W/m² | - |
| 1787978884 | 22.22° C | 49% | 1021.5 hPa | 0 mm | - | 0 W/m² | - |
| 1787977984 | 22.78° C | 49% | 1021.6 hPa | 0 mm | - | 0 W/m² | - |
| 1787977084 | 22.78° C | 49% | 1021.7 hPa | 0 mm | - | 0 W/m² | - |
| 1787976184 | 23.33° C | 48% | 1021.8 hPa | 0 mm | - | 0 W/m² | - |
| 1787975284 | 23.33° C | 46% | 1021.8 hPa | 0 mm | - | 0 W/m² | - |
| 1787974384 | 23.89° C | 44% | 1021.8 hPa | 0 mm | - | 0 W/m² | - |
| 1787973484 | 24.44° C | 42% | 1021.8 hPa | 0 mm | - | 0 W/m² | - |
| 1787972584 | 25° C | 38% | 1021.9 hPa | 0 mm | - | 0 W/m² | - |
| 1787971684 | 25.56° C | 37% | 1021.8 hPa | 0 mm | - | 0 W/m² | - |
| 1787970784 | 25.56° C | 35% | 1021.5 hPa | 0 mm | - | 0 W/m² | - |
| 1787969884 | 25° C | 36% | 1021.5 hPa | 0 mm | - | 0 W/m² | - |
| 1787968984 | 25.56° C | 35% | 1020.9 hPa | 0 mm | - | 0 W/m² | - |
| 1787968083 | 26.67° C | 33% | 1020.5 hPa | 0 mm | - | 1 W/m² | - |
| 1787967183 | 27.22° C | 32% | 1020.4 hPa | 0 mm | - | 6 W/m² | - |
| 1787966283 | 27.22° C | 33% | 1020.4 hPa | 0 mm | - | 25 W/m² | - |
| 1787965383 | 26.67° C | 33% | 1020.9 hPa | 0 mm | - | 26 W/m² | - |
| 1787964483 | 26.67° C | 37% | 1021.1 hPa | 0 mm | - | 26 W/m² | - |
| 1787963583 | 27.22° C | 34% | 1021.1 hPa | 0 mm | - | 67 W/m² | - |
| 1787962683 | 27.78° C | 32% | 1021.4 hPa | 0 mm | - | 42 W/m² | - |
| 1787961783 | 28.33° C | 30% | 1021.4 hPa | 0 mm | - | 59 W/m² | - |
| 1787960883 | 28.89° C | 28% | 1021 hPa | 0 mm | - | 29 W/m² | - |
* Rain since midnight (hover to see other rain measurements)
** Current wind speed in m/s (hover to see current wind gust speed)